Date String (YYYY-MM-DD hh:mm:ss) UTC,Instrument flags,Ambient pressure (hPa),Sample flow (lpm),Bypass flow (lpm),Sample temperature (°C),Ambient temperature (°C),ASC tube jacket temperature (°C),LED temperature (°C),Box temperature (°C),Sample RH (%),Span deviation,Mass concentration (μg/m³),Mass concentration (μg/m³),Mass concentration (μg/m³)
DateTimeUTC,F1_M11,P_M11,Q1_M11,Q2_M11,T1_M11,T2_M11,T3_M11,T4_M11,T5_M11,U1_M11,ZSPAN_M11,X0_M11,X2_M11,X1_M11
2022-03-01 18:00:00,,0830.2,4.99,0.00,28.9,28.2,00.0,37.8,30.8,08.4,0000.0,0003.59,0000.94,0000.57
2022-03-01 18:01:00,,0830.2,5.01,0.00,28.9,28.2,00.0,37.8,30.8,08.5,0000.0,0003.60,0000.94,0000.56
2022-03-01 18:02:00,,0830.2,5.00,0.00,29.0,28.2,00.0,37.8,30.8,08.8,0000.0,0003.74,0000.98,0000.56
2022-03-01 18:03:00,,0830.2,4.99,0.00,29.0,28.2,00.0,37.8,30.8,09.1,0000.0,0003.32,0001.01,0000.55
2022-03-01 18:04:00,,0830.1,5.01,0.00,29.0,28.2,00.0,37.8,30.8,08.6,0000.0,0003.19,0000.99,0000.54
2022-03-01 18:05:00,,0830.2,5.00,0.00,29.0,28.2,00.0,37.8,30.8,08.6,0000.0,0003.34,0000.99,0000.54
2022-03-01 18:06:00,,0830.1,4.99,0.00,29.0,28.2,00.0,37.9,30.9,08.5,0000.0,0002.54,0000.99,0000.54
2022-03-01 18:07:00,,0830.1,4.99,0.00,29.0,28.3,00.0,37.9,30.9,08.6,0000.0,0002.21,0000.99,0000.55
2022-03-01 18:08:00,,0830.1,5.01,0.00,29.0,28.3,00.0,37.9,30.9,08.6,0000.0,0002.39,0001.05,0000.57
2022-03-01 18:09:00,,0830.1,4.99,0.00,29.1,28.3,00.0,37.9,30.9,08.6,0000.0,0002.48,0001.08,0000.58
2022-03-01 18:10:00,,0830.0,5.01,0.00,29.1,28.3,00.0,37.9,30.9,08.5,0000.0,0003.29,0001.17,0000.59
2022-03-01 18:11:00,,0830.1,4.99,0.00,29.1,28.3,00.0,37.9,30.9,08.5,0000.0,0004.06,0001.21,0000.60
2022-03-01 18:12:00,,0830.0,5.00,0.00,29.1,28.3,00.0,38.0,30.9,08.6,0000.0,0004.50,0001.27,0000.62
2022-03-01 18:13:00,,0830.0,5.01,0.00,29.1,28.3,00.0,38.0,30.9,08.7,0000.0,0004.61,0001.26,0000.63
2022-03-01 18:14:00,,0830.0,4.99,0.00,29.1,28.3,00.0,38.0,30.9,09.0,0000.0,0004.53,0001.25,0000.65
2022-03-01 18:15:00,,0830.0,5.00,0.00,29.1,28.3,00.0,38.0,30.9,08.9,0000.0,0004.92,0001.28,0000.67
2022-03-01 18:16:00,,0830.0,5.02,0.00,29.1,28.3,00.0,38.0,30.9,09.1,0000.0,0005.05,0001.32,0000.69
2022-03-01 18:17:00,,0830.0,4.98,0.00,29.1,28.3,00.0,38.0,30.9,09.2,0000.0,0005.01,0001.35,0000.70
2022-03-01 18:18:00,,0830.0,5.00,0.00,29.1,28.3,00.0,38.0,30.9,09.0,0000.0,0005.06,0001.38,0000.71
2022-03-01 18:19:00,,0830.0,5.02,0.00,29.1,28.3,00.0,38.0,30.9,09.0,0000.0,0005.02,0001.38,0000.72
2022-03-01 18:20:00,,0830.0,4.99,0.00,29.1,28.3,00.0,38.0,30.9,08.9,0000.0,0005.05,0001.40,0000.72
2022-03-01 18:21:00,,0830.0,5.01,0.00,29.1,28.3,00.0,38.1,30.9,08.9,0000.0,0004.27,0001.33,0000.74
2022-03-01 18:22:00,,0829.9,5.02,0.00,29.1,28.3,00.0,38.1,30.9,08.9,0000.0,0003.41,0001.27,0000.75
2022-03-01 18:23:00,,0829.9,4.99,0.00,29.1,28.3,00.0,38.1,30.9,09.0,0000.0,0004.85,0001.31,0000.76
2022-03-01 18:24:00,,0829.9,5.00,0.00,29.1,28.2,00.0,38.1,30.9,09.0,0000.0,0005.38,0001.34,0000.78
2022-03-01 18:25:00,,0829.9,5.01,0.00,29.1,28.2,00.0,38.1,30.9,09.2,0000.0,0005.59,0001.43,0000.79
2022-03-01 18:26:00,,0829.9,4.99,0.00,29.1,28.3,00.0,38.1,30.8,09.1,0000.0,0005.34,0001.48,0000.81
2022-03-01 18:27:00,,0829.9,4.99,0.00,29.1,28.3,00.0,38.1,30.8,09.0,0000.0,0005.23,0001.50,0000.84
2022-03-01 18:28:00,,0829.9,5.02,0.00,29.1,28.3,00.0,38.1,30.8,09.2,0000.0,0005.35,0001.49,0000.85
2022-03-01 18:29:00,,0829.8,4.99,0.00,29.1,28.3,00.0,38.1,30.8,09.1,0000.0,0006.38,0001.59,0000.88
2022-03-01 18:30:00,,0829.9,5.00,0.00,29.1,28.2,00.0,38.1,30.8,09.3,0000.0,0006.72,0001.66,0000.91
2022-03-01 18:31:00,,0829.8,5.01,0.00,29.1,28.2,00.0,38.1,30.8,09.4,0000.0,0006.69,0001.67,0000.93
2022-03-01 18:32:00,,0829.8,5.00,0.00,29.1,28.2,00.0,38.1,30.8,09.4,0000.0,0006.84,0001.74,0000.97
2022-03-01 18:33:00,,0829.8,4.99,0.00,29.1,28.2,00.0,38.1,30.8,09.2,0000.0,0006.90,0001.82,0001.00
2022-03-01 18:34:00,,0829.8,5.01,0.00,29.1,28.3,00.0,38.1,30.8,09.7,0000.0,0005.22,0001.81,0001.03
2022-03-01 18:35:00,,0829.8,4.99,0.00,29.1,28.3,00.0,38.1,30.8,09.6,0000.0,0004.74,0001.84,0001.06
2022-03-01 18:36:00,,0829.8,5.00,0.00,29.1,28.3,00.0,38.1,30.8,09.4,0000.0,0004.67,0001.81,0001.07
2022-03-01 18:37:00,,0829.8,5.00,0.00,29.1,28.3,00.0,38.1,30.8,09.6,0000.0,0005.16,0001.88,0001.10
2022-03-01 18:38:00,,0829.8,5.02,0.00,29.1,28.3,00.0,38.1,30.8,09.4,0000.0,0006.00,0001.98,0001.12
2022-03-01 18:39:00,,0829.8,4.99,0.00,29.1,28.3,00.0,38.1,30.8,09.3,0000.0,0006.08,0002.11,0001.16
2022-03-01 18:40:00,,0829.8,4.99,0.00,29.1,28.4,00.0,38.1,30.8,09.1,0000.0,0005.27,0002.10,0001.19
2022-03-01 18:41:00,,0829.8,5.01,0.00,29.1,28.3,00.0,38.1,30.8,09.2,0000.0,0005.14,0002.12,0001.22
2022-03-01 18:42:00,,0829.8,4.98,0.00,29.1,28.3,00.0,38.1,30.9,09.4,0000.0,0005.61,0002.23,0001.26
2022-03-01 18:43:00,,0829.8,5.00,0.00,29.1,28.4,00.0,38.1,30.9,09.6,0000.0,0006.22,0002.28,0001.28
2022-03-01 18:44:00,,0829.8,5.00,0.00,29.1,28.4,00.0,38.1,30.9,09.3,0000.0,0006.31,0002.33,0001.32
2022-03-01 18:45:00,,0829.7,4.99,0.00,29.1,28.4,00.0,38.1,30.9,09.3,0000.0,0006.51,0002.42,0001.37
2022-03-01 18:46:00,,0829.7,5.01,0.00,29.1,28.4,00.0,38.1,30.9,09.3,0000.0,0006.59,0002.51,0001.43
2022-03-01 18:47:00,,0829.6,4.99,0.00,29.1,28.4,00.0,38.1,30.9,09.5,0000.0,0006.76,0002.63,0001.50
2022-03-01 18:48:00,,0829.6,5.00,0.00,29.1,28.4,00.0,38.1,30.9,09.2,0000.0,0006.32,0002.65,0001.55
2022-03-01 18:49:00,,0829.6,5.01,0.00,29.1,28.4,00.0,38.1,30.9,09.4,0000.0,0005.68,0002.65,0001.59
2022-03-01 18:50:00,,0829.6,4.99,0.00,29.1,28.4,00.0,38.1,30.9,09.7,0000.0,0005.73,0002.67,0001.63
2022-03-01 18:51:00,,0829.6,5.00,0.00,29.1,28.4,00.0,38.1,30.9,09.4,0000.0,0005.94,0002.75,0001.68
2022-03-01 18:52:00,,0829.6,5.00,0.00,29.1,28.4,00.0,38.1,30.9,09.4,0000.0,0006.89,0002.82,0001.74
2022-03-01 18:53:00,,0829.6,5.02,0.00,29.1,28.4,00.0,38.1,30.9,09.6,0000.0,0006.74,0002.83,0001.79
2022-03-01 18:54:00,,0829.6,4.99,0.00,29.2,28.4,00.0,38.1,30.9,09.6,0000.0,0006.19,0002.87,0001.85
2022-03-01 18:55:00,,0829.6,4.99,0.00,29.2,28.5,00.0,38.1,30.9,09.3,0000.0,0006.92,0003.02,0001.89
2022-03-01 18:56:00,,0829.6,5.00,0.00,29.2,28.4,00.0,38.1,30.9,09.5,0000.0,0007.43,0003.08,0001.92
2022-03-01 18:57:00,,0829.6,5.00,0.00,29.2,28.5,00.0,38.1,30.9,09.5,0000.0,0008.88,0003.13,0001.98
2022-03-01 18:58:00,,0829.6,4.99,0.00,29.2,28.5,00.0,38.1,31.0,09.5,0000.0,0008.99,0003.17,0002.04
2022-03-01 18:59:00,,0829.6,5.00,0.00,29.2,28.5,00.0,38.1,31.0,09.5,0000.0,0009.11,0003.23,0002.12
